Powrót do katalogu

STARLINK-30795

AktywnyŁącznośćVLEO
NORAD 58118·PAYLOAD·🇺🇸 United States

Wystrzelony Oct 22, 2023 z Cape Canaveral Space Force Station

Loading…

Następne Przeloty (najbliższe 24 godziny)

TLE

ŚwieżeSource: CelesTrak SupGP

Epoka: Sep 15, 2026, 03:20 UTC

1 58118C 23162A   26258.13937500  .00066846  00000+0  24208-2 0  2583
2 58118  43.0014 142.1939 0001415 273.5689 157.3993 15.27550109    10

Śledź STARLINK-30795 w czasie rzeczywistym z AllMySat

Download on the App Store